TimeEST,TemperatureF,Dew PointF,Humidity,Sea Level PressureIn,VisibilityMPH,Wind Direction,Wind SpeedMPH,Gust SpeedMPH,PrecipitationIn,Events,Conditions,WindDirDegrees,DateUTC
12:53 AM,32.0,25.0,75,30.01,10.0,WNW,13.8,27.6,N/A,,Overcast,290,2013-11-23 05:53:00
1:53 AM,30.9,24.1,76,30.04,10.0,West,13.8,23.0,N/A,,Overcast,270,2013-11-23 06:53:00
2:53 AM,30.9,21.9,69,30.06,10.0,West,13.8,25.3,N/A,,Overcast,280,2013-11-23 07:53:00
3:53 AM,30.0,21.9,72,30.07,10.0,West,12.7,21.9,N/A,,Overcast,260,2013-11-23 08:53:00
4:53 AM,28.9,19.9,69,30.07,10.0,West,13.8,24.2,N/A,,Overcast,280,2013-11-23 09:53:00
5:53 AM,28.0,19.9,72,30.07,10.0,West,11.5,20.7,N/A,,Overcast,280,2013-11-23 10:53:00
6:53 AM,28.0,19.0,69,30.07,10.0,West,17.3,-,N/A,,Overcast,260,2013-11-23 11:53:00
7:53 AM,28.0,19.9,72,30.08,10.0,WSW,9.2,-,N/A,,Overcast,250,2013-11-23 12:53:00
8:53 AM,27.0,19.0,72,30.06,10.0,WSW,11.5,-,N/A,,Overcast,240,2013-11-23 13:53:00
9:53 AM,27.0,19.0,72,30.05,10.0,WSW,11.5,18.4,N/A,,Overcast,250,2013-11-23 14:53:00
10:53 AM,28.0,19.0,69,30.01,10.0,WSW,9.2,-,N/A,,Overcast,250,2013-11-23 15:53:00
11:45 AM,30.2,19.4,64,29.95,10.0,WSW,9.2,-,N/A,,Overcast,240,2013-11-23 16:45:00
11:53 AM,30.0,19.9,66,29.96,10.0,SW,11.5,-,N/A,,Overcast,230,2013-11-23 16:53:00
12:21 PM,30.2,21.2,69,29.91,10.0,SW,12.7,18.4,N/A,,Overcast,220,2013-11-23 17:21:00
12:37 PM,30.2,21.2,69,29.90,10.0,SW,9.2,-,N/A,,Overcast,230,2013-11-23 17:37:00
12:53 PM,30.0,21.0,69,29.91,9.0,WSW,8.1,-,N/A,,Overcast,250,2013-11-23 17:53:00
1:30 PM,30.2,23.0,75,29.86,2.5,WSW,9.2,-,0.00,Snow,Light Snow,240,2013-11-23 18:30:00
1:40 PM,30.2,24.8,80,29.86,1.2,SW,9.2,-,0.00,Snow,Light Snow,230,2013-11-23 18:40:00
1:53 PM,28.9,24.1,82,29.88,2.0,WSW,8.1,-,0.00,Snow,Light Snow,240,2013-11-23 18:53:00
2:10 PM,28.4,24.8,86,29.85,1.5,WSW,5.8,-,0.00,Snow,Light Snow,240,2013-11-23 19:10:00
2:16 PM,28.4,24.8,86,29.85,0.8,WSW,8.1,-,0.00,Snow,Light Snow,240,2013-11-23 19:16:00
2:53 PM,28.9,26.1,89,29.86,0.5,West,6.9,-,0.01,Fog-Snow,Snow,270,2013-11-23 19:53:00
3:00 PM,28.4,26.6,93,29.84,0.8,West,10.4,-,0.00,Snow,Light Snow,280,2013-11-23 20:00:00
3:09 PM,28.4,26.6,93,29.84,1.0,NW,8.1,-,0.00,Snow,Light Snow,320,2013-11-23 20:09:00
3:14 PM,28.4,24.8,86,29.84,0.8,NNW,9.2,-,0.00,Snow,Light Snow,340,2013-11-23 20:14:00
3:22 PM,28.4,24.8,86,29.84,1.5,NNW,6.9,-,0.00,Snow,Light Snow,330,2013-11-23 20:22:00
3:26 PM,28.4,24.8,86,29.85,2.0,NW,9.2,-,0.00,Snow,Light Snow,310,2013-11-23 20:26:00
3:29 PM,28.4,24.8,86,29.85,3.0,NW,10.4,-,0.00,Snow,Light Snow,320,2013-11-23 20:29:00
3:36 PM,26.6,23.0,86,29.84,2.5,NNW,10.4,-,0.00,Snow,Light Snow,340,2013-11-23 20:36:00
3:43 PM,26.6,23.0,86,29.84,3.0,NNW,12.7,-,0.00,Snow,Light Snow,340,2013-11-23 20:43:00
3:53 PM,27.0,21.9,81,29.86,2.0,NW,13.8,18.4,0.00,Snow,Light Snow,320,2013-11-23 20:53:00
3:56 PM,26.6,21.2,80,29.85,1.2,NW,12.7,18.4,0.00,Snow,Light Snow,310,2013-11-23 20:56:00
4:01 PM,26.6,21.2,80,29.85,0.8,NW,9.2,19.6,0.00,Snow,Light Snow,320,2013-11-23 21:01:00
4:04 PM,26.6,21.2,80,29.85,1.0,NW,16.1,21.9,0.00,Snow,Light Snow,320,2013-11-23 21:04:00
4:10 PM,26.6,21.2,80,29.85,1.5,NW,16.1,23.0,0.00,Snow,Light Snow,310,2013-11-23 21:10:00
4:12 PM,26.6,21.2,80,29.86,2.0,NW,17.3,23.0,0.00,Snow,Light Snow,320,2013-11-23 21:12:00
4:17 PM,26.6,21.2,80,29.86,4.0,NW,12.7,23.0,0.00,Snow,Light Snow,320,2013-11-23 21:17:00
4:35 PM,26.6,19.4,74,29.87,10.0,NW,12.7,21.9,0.00,,Overcast,310,2013-11-23 21:35:00
4:43 PM,26.6,19.4,74,29.87,10.0,WNW,12.7,-,0.00,,Overcast,300,2013-11-23 21:43:00
4:53 PM,26.1,19.0,75,29.90,10.0,WNW,16.1,24.2,0.00,,Overcast,300,2013-11-23 21:53:00
5:53 PM,25.0,19.0,78,29.92,10.0,WNW,12.7,23.0,N/A,,Mostly Cloudy,290,2013-11-23 22:53:00
6:35 PM,24.8,17.6,74,29.91,10.0,WNW,13.8,-,N/A,,Mostly Cloudy,290,2013-11-23 23:35:00
6:53 PM,24.1,17.1,75,29.94,9.0,WNW,15.0,-,0.00,,Overcast,290,2013-11-23 23:53:00
7:29 PM,24.8,17.6,74,29.92,9.0,WNW,11.5,20.7,0.00,Snow,Light Snow,300,2013-11-24 00:29:00
7:51 PM,23.0,15.8,74,29.93,9.0,NW,9.2,18.4,0.00,,Overcast,310,2013-11-24 00:51:00
7:53 PM,23.0,15.1,72,29.95,9.0,NW,10.4,-,0.00,,Overcast,320,2013-11-24 00:53:00
8:53 PM,21.0,10.9,65,29.97,10.0,WNW,18.4,23.0,0.00,,Mostly Cloudy,300,2013-11-24 01:53:00
9:53 PM,21.0,12.0,68,29.98,4.0,WNW,13.8,21.9,0.00,Snow,Light Snow,300,2013-11-24 02:53:00
10:07 PM,21.2,10.4,63,29.96,9.0,WNW,15.0,21.9,0.00,,Overcast,300,2013-11-24 03:07:00
10:53 PM,19.9,10.0,65,29.99,10.0,WNW,16.1,26.5,0.00,,Overcast,290,2013-11-24 03:53:00
11:53 PM,19.0,10.0,68,30.01,9.0,WNW,16.1,25.3,0.00,,Overcast,290,2013-11-24 04:53:00